Time,TemperatureF,DewpointF,PressureIn,WindDirection,WindDirectionDegrees,WindSpeedMPH,WindSpeedGustMPH,Humidity,HourlyPrecipIn,Conditions,Clouds,dailyrainin,SoftwareType,DateUTC
2013-02-04 00:00:00,28.5,23.4,29.85,WSW,258,1.0,3.0,81,0.00,,,0.00,VWS V14.01,2013-02-04 05:00:00,
2013-02-04 00:01:00,28.5,23.4,29.85,WSW,240,2.0,3.0,81,0.00,,,0.00,VWS V14.01,2013-02-04 05:01:00,
2013-02-04 00:02:00,28.5,23.4,29.85,WNW,302,2.0,5.0,81,0.00,,,0.00,VWS V14.01,2013-02-04 05:02:00,
2013-02-04 00:03:00,28.5,23.4,29.85,West,261,3.0,5.0,81,0.00,,,0.00,VWS V14.01,2013-02-04 05:03:00,
2013-02-04 00:08:00,28.6,23.5,29.86,NW,307,5.0,5.0,81,0.00,,,0.00,VWS V14.01,2013-02-04 05:08:00,
2013-02-04 00:13:00,28.6,23.5,29.86,WSW,248,3.0,9.0,81,0.00,,,0.00,VWS V14.01,2013-02-04 05:13:00,
2013-02-04 00:18:00,28.6,23.5,29.86,WNW,296,7.0,9.0,81,0.00,,,0.00,VWS V14.01,2013-02-04 05:18:00,
2013-02-04 00:23:00,28.5,23.1,29.86,WNW,283,8.0,11.0,80,0.00,,,0.00,VWS V14.01,2013-02-04 05:23:00,
2013-02-04 00:28:00,28.4,22.4,29.86,NNW,327,5.0,11.0,78,0.00,,,0.00,VWS V14.01,2013-02-04 05:28:00,
2013-02-04 00:33:00,28.3,22.0,29.86,West,271,5.0,7.0,77,0.00,,,0.00,VWS V14.01,2013-02-04 05:33:00,
2013-02-04 00:38:00,28.2,21.6,29.86,WNW,288,4.0,11.0,76,0.00,,,0.00,VWS V14.01,2013-02-04 05:38:00,
2013-02-04 00:43:00,28.1,20.9,29.86,NW,321,8.0,13.0,74,0.00,,,0.00,VWS V14.01,2013-02-04 05:43:00,
2013-02-04 00:48:00,27.9,20.1,29.87,West,273,9.0,17.0,72,0.00,,,0.00,VWS V14.01,2013-02-04 05:48:00,
2013-02-04 00:53:00,27.7,18.2,29.87,NW,325,7.0,17.0,67,0.00,,,0.00,VWS V14.01,2013-02-04 05:53:00,
2013-02-04 00:58:00,27.6,17.7,29.87,NW,304,8.0,17.0,66,0.00,,,0.00,VWS V14.01,2013-02-04 05:58:00,
2013-02-04 01:03:00,27.5,17.3,29.87,WNW,290,7.0,17.0,65,0.00,,,0.00,VWS V14.01,2013-02-04 06:03:00,
2013-02-04 01:08:00,27.3,17.1,29.87,NW,323,6.0,17.0,65,0.00,,,0.00,VWS V14.01,2013-02-04 06:08:00,
2013-02-04 01:13:00,27.2,17.0,29.87,West,278,6.0,17.0,65,0.00,,,0.00,VWS V14.01,2013-02-04 06:13:00,
2013-02-04 01:18:00,27.1,16.9,29.87,WNW,290,6.0,17.0,65,0.00,,,0.00,VWS V14.01,2013-02-04 06:18:00,
2013-02-04 01:23:00,27.0,16.8,29.87,NW,313,3.0,17.0,65,0.00,,,0.00,VWS V14.01,2013-02-04 06:23:00,
2013-02-04 01:28:00,26.9,17.1,29.87,WNW,283,5.0,17.0,66,0.00,,,0.00,VWS V14.01,2013-02-04 06:28:00,
2013-02-04 01:33:00,26.9,17.4,29.88,NW,304,5.0,11.0,67,0.00,,,0.00,VWS V14.01,2013-02-04 06:33:00,
2013-02-04 01:38:00,26.7,17.6,29.88,NW,319,7.0,12.0,68,0.00,,,0.00,VWS V14.01,2013-02-04 06:38:00,
2013-02-04 01:44:00,26.6,17.8,29.88,West,270,3.0,12.0,69,0.00,,,0.00,VWS V14.01,2013-02-04 06:44:00,
2013-02-04 01:49:00,26.3,17.2,29.88,WNW,286,3.0,13.0,68,0.00,,,0.00,VWS V14.01,2013-02-04 06:49:00,
2013-02-04 01:54:00,26.2,16.8,29.88,NNW,346,7.0,17.0,67,0.00,,,0.00,VWS V14.01,2013-02-04 06:54:00,
2013-02-04 01:59:00,26.1,16.3,29.88,West,269,8.0,17.0,66,0.00,,,0.00,VWS V14.01,2013-02-04 06:59:00,
2013-02-04 02:04:00,26.0,15.9,29.88,West,279,5.0,15.0,65,0.00,,,0.00,VWS V14.01,2013-02-04 07:04:00,
2013-02-04 02:09:00,26.0,16.2,29.89,WNW,302,7.0,17.0,66,0.00,,,0.00,VWS V14.01,2013-02-04 07:09:00,
2013-02-04 02:14:00,25.8,16.0,29.89,NW,312,5.0,17.0,66,0.00,,,0.00,VWS V14.01,2013-02-04 07:14:00,
2013-02-04 02:19:00,25.7,15.6,29.90,NW,306,13.0,17.0,65,0.00,,,0.00,VWS V14.01,2013-02-04 07:19:00,
2013-02-04 02:24:00,25.6,15.1,29.90,NW,315,11.0,19.0,64,0.00,,,0.00,VWS V14.01,2013-02-04 07:24:00,
2013-02-04 02:29:00,25.5,14.7,29.90,West,278,11.0,19.0,63,0.00,,,0.00,VWS V14.01,2013-02-04 07:29:00,
2013-02-04 02:34:00,25.4,14.6,29.90,NNW,333,5.0,16.0,63,0.00,,,0.00,VWS V14.01,2013-02-04 07:34:00,
2013-02-04 02:39:00,25.3,14.1,29.90,WNW,284,7.0,16.0,62,0.00,,,0.00,VWS V14.01,2013-02-04 07:39:00,
2013-02-04 02:44:00,25.2,14.4,29.90,NW,319,3.0,16.0,63,0.00,,,0.00,VWS V14.01,2013-02-04 07:44:00,
2013-02-04 02:49:00,25.0,13.8,29.90,WNW,286,8.0,16.0,62,0.00,,,0.00,VWS V14.01,2013-02-04 07:49:00,
2013-02-04 02:54:00,24.9,13.7,29.90,WSW,254,3.0,16.0,62,0.00,,,0.00,VWS V14.01,2013-02-04 07:54:00,
2013-02-04 02:59:00,24.7,13.6,29.90,WNW,289,2.0,16.0,62,0.00,,,0.00,VWS V14.01,2013-02-04 07:59:00,
2013-02-04 03:04:00,24.6,13.4,29.91,NW,315,3.0,9.0,62,0.00,,,0.00,VWS V14.01,2013-02-04 08:04:00,
2013-02-04 03:09:00,24.5,13.4,29.91,West,264,6.0,12.0,62,0.00,,,0.00,VWS V14.01,2013-02-04 08:09:00,
2013-02-04 03:14:00,24.5,13.0,29.91,West,275,3.0,12.0,61,0.00,,,0.00,VWS V14.01,2013-02-04 08:14:00,
2013-02-04 03:19:00,24.4,12.9,29.91,West,259,4.0,12.0,61,0.00,,,0.00,VWS V14.01,2013-02-04 08:19:00,
2013-02-04 03:24:00,24.3,12.8,29.91,West,268,6.0,15.0,61,0.00,,,0.00,VWS V14.01,2013-02-04 08:24:00,
2013-02-04 03:29:00,24.2,12.7,29.91,WNW,288,8.0,15.0,61,0.00,,,0.00,VWS V14.01,2013-02-04 08:29:00,
2013-02-04 03:34:00,24.1,12.6,29.91,West,278,5.0,8.0,61,0.00,,,0.00,VWS V14.01,2013-02-04 08:34:00,
2013-02-04 03:39:00,24.0,12.5,29.92,NNW,327,3.0,12.0,61,0.00,,,0.00,VWS V14.01,2013-02-04 08:39:00,
2013-02-04 03:44:00,23.9,12.1,29.92,WNW,287,5.0,12.0,60,0.00,,,0.00,VWS V14.01,2013-02-04 08:44:00,
2013-02-04 03:49:00,23.8,12.0,29.92,West,279,6.0,12.0,60,0.00,,,0.00,VWS V14.01,2013-02-04 08:49:00,
2013-02-04 03:54:00,23.8,12.0,29.92,West,281,6.0,14.0,60,0.00,,,0.00,VWS V14.01,2013-02-04 08:54:00,
2013-02-04 03:59:00,23.7,11.9,29.93,WNW,287,7.0,14.0,60,0.00,,,0.00,VWS V14.01,2013-02-04 08:59:00,
2013-02-04 04:04:00,23.6,11.8,29.93,NW,307,9.0,15.0,60,0.00,,,0.00,VWS V14.01,2013-02-04 09:04:00,
2013-02-04 04:10:00,23.6,11.8,29.93,NW,309,4.0,15.0,60,0.00,,,0.00,VWS V14.01,2013-02-04 09:10:00,
2013-02-04 04:15:00,23.6,11.8,29.93,West,277,5.0,15.0,60,0.00,,,0.00,VWS V14.01,2013-02-04 09:15:00,
2013-02-04 04:20:00,23.5,11.7,29.94,West,261,3.0,15.0,60,0.00,,,0.00,VWS V14.01,2013-02-04 09:20:00,
2013-02-04 04:25:00,23.4,11.6,29.94,NW,317,8.0,15.0,60,0.00,,,0.00,VWS V14.01,2013-02-04 09:25:00,
2013-02-04 04:30:00,23.3,11.9,29.94,WNW,286,3.0,4.0,61,0.00,,,0.00,VWS V14.01,2013-02-04 09:30:00,
2013-02-04 04:35:00,23.2,11.8,29.94,WNW,284,4.0,9.0,61,0.00,,,0.00,VWS V14.01,2013-02-04 09:35:00,
2013-02-04 04:40:00,23.1,12.0,29.95,West,273,2.0,9.0,62,0.00,,,0.00,VWS V14.01,2013-02-04 09:40:00,
2013-02-04 04:45:00,23.0,11.6,29.95,WNW,293,5.0,12.0,61,0.00,,,0.00,VWS V14.01,2013-02-04 09:45:00,
2013-02-04 04:50:00,23.0,11.6,29.95,WNW,285,3.0,12.0,61,0.00,,,0.00,VWS V14.01,2013-02-04 09:50:00,
2013-02-04 04:55:00,23.0,11.9,29.95,NW,312,10.0,12.0,62,0.00,,,0.00,VWS V14.01,2013-02-04 09:55:00,
2013-02-04 05:00:00,22.9,11.8,29.95,NW,312,5.0,6.0,62,0.00,,,0.00,VWS V14.01,2013-02-04 10:00:00,
2013-02-04 05:05:00,22.9,11.8,29.96,West,263,4.0,11.0,62,0.00,,,0.00,VWS V14.01,2013-02-04 10:05:00,
2013-02-04 05:10:00,22.9,11.8,29.96,West,275,9.0,12.0,62,0.00,,,0.00,VWS V14.01,2013-02-04 10:10:00,
2013-02-04 05:15:00,22.9,11.8,29.96,WNW,288,5.0,12.0,62,0.00,,,0.00,VWS V14.01,2013-02-04 10:15:00,
2013-02-04 05:20:00,22.8,11.8,29.96,West,261,6.0,12.0,62,0.00,,,0.00,VWS V14.01,2013-02-04 10:20:00,
2013-02-04 05:25:00,22.8,11.8,29.96,NW,325,8.0,12.0,62,0.00,,,0.00,VWS V14.01,2013-02-04 10:25:00,
2013-02-04 05:30:00,22.8,11.8,29.96,NW,306,10.0,10.0,62,0.00,,,0.00,VWS V14.01,2013-02-04 10:30:00,
2013-02-04 05:35:00,22.8,11.8,29.97,WNW,289,3.0,12.0,62,0.00,,,0.00,VWS V14.01,2013-02-04 10:35:00,
2013-02-04 05:40:00,22.8,11.8,29.97,NW,323,8.0,12.0,62,0.00,,,0.00,VWS V14.01,2013-02-04 10:40:00,
2013-02-04 05:45:00,22.8,11.8,29.97,WNW,288,6.0,12.0,62,0.00,,,0.00,VWS V14.01,2013-02-04 10:45:00,
2013-02-04 05:50:00,22.8,11.8,29.97,West,280,3.0,12.0,62,0.00,,,0.00,VWS V14.01,2013-02-04 10:50:00,
2013-02-04 05:55:00,22.8,11.8,29.97,West,279,2.0,12.0,62,0.00,,,0.00,VWS V14.01,2013-02-04 10:55:00,
2013-02-04 06:00:00,22.9,11.8,29.98,NNW,344,4.0,5.0,62,0.00,,,0.00,VWS V14.01,2013-02-04 11:00:00,
2013-02-04 06:05:00,22.9,11.8,29.98,WNW,288,3.0,10.0,62,0.00,,,0.00,VWS V14.01,2013-02-04 11:05:00,
2013-02-04 06:10:00,22.8,11.8,29.98,WNW,290,4.0,10.0,62,0.00,,,0.00,VWS V14.01,2013-02-04 11:10:00,
2013-02-04 06:15:00,22.7,12.0,29.98,NW,312,2.0,10.0,63,0.00,,,0.00,VWS V14.01,2013-02-04 11:15:00,
2013-02-04 06:20:00,22.6,11.9,29.98,West,271,0.0,10.0,63,0.00,,,0.00,VWS V14.01,2013-02-04 11:20:00,
2013-02-04 06:25:00,22.5,12.2,29.98,WNW,284,2.0,10.0,64,0.00,,,0.00,VWS V14.01,2013-02-04 11:25:00,
2013-02-04 06:30:00,22.4,12.1,29.98,WNW,301,1.0,2.0,64,0.00,,,0.00,VWS V14.01,2013-02-04 11:30:00,
2013-02-04 06:35:00,22.2,12.2,29.98,WNW,285,1.0,5.0,65,0.00,,,0.00,VWS V14.01,2013-02-04 11:35:00,
2013-02-04 06:40:00,22.1,12.5,29.98,West,272,0.0,5.0,66,0.00,,,0.00,VWS V14.01,2013-02-04 11:40:00,
2013-02-04 06:45:00,21.9,12.0,29.98,WSW,252,2.0,5.0,65,0.00,,,0.00,VWS V14.01,2013-02-04 11:45:00,
2013-02-04 06:50:00,21.8,12.2,29.98,West,267,1.0,5.0,66,0.00,,,0.00,VWS V14.01,2013-02-04 11:50:00,
2013-02-04 06:55:00,21.6,12.0,29.98,NW,317,0.0,5.0,66,0.00,,,0.00,VWS V14.01,2013-02-04 11:55:00,
2013-02-04 07:00:00,21.5,12.3,29.99,NNW,327,0.0,1.0,67,0.00,,,0.00,VWS V14.01,2013-02-04 12:00:00,
2013-02-04 07:05:00,21.4,12.2,29.99,WNW,300,0.0,3.0,67,0.00,,,0.00,VWS V14.01,2013-02-04 12:05:00,
2013-02-04 07:10:00,21.3,12.4,29.99,West,264,1.0,3.0,68,0.00,,,0.00,VWS V14.01,2013-02-04 12:10:00,
2013-02-04 07:15:00,21.3,12.4,29.99,WNW,296,2.0,3.0,68,0.00,,,0.00,VWS V14.01,2013-02-04 12:15:00,
2013-02-04 07:21:00,21.3,12.4,30.00,WNW,303,1.0,3.0,68,0.00,,,0.00,VWS V14.01,2013-02-04 12:21:00,
2013-02-04 07:26:00,21.4,12.8,30.00,WNW,282,2.0,4.0,69,0.00,,,0.00,VWS V14.01,2013-02-04 12:26:00,
2013-02-04 07:31:00,21.4,12.5,30.00,WNW,299,0.0,3.0,68,0.00,,,0.00,VWS V14.01,2013-02-04 12:31:00,
2013-02-04 07:36:00,21.6,12.7,30.00,WNW,298,1.0,3.0,68,0.00,,,0.00,VWS V14.01,2013-02-04 12:36:00,
2013-02-04 07:41:00,21.7,12.8,30.00,WNW,302,3.0,5.0,68,0.00,,,0.00,VWS V14.01,2013-02-04 12:41:00,
2013-02-04 07:46:00,21.9,12.6,30.00,West,271,1.0,5.0,67,0.00,,,0.00,VWS V14.01,2013-02-04 12:46:00,
2013-02-04 07:51:00,22.1,12.8,30.01,WNW,282,3.0,5.0,67,0.00,,,0.00,VWS V14.01,2013-02-04 12:51:00,
2013-02-04 07:56:00,22.3,13.0,30.00,WNW,296,3.0,7.0,67,0.00,,,0.00,VWS V14.01,2013-02-04 12:56:00,
2013-02-04 08:01:00,22.5,12.9,30.01,WNW,298,4.0,5.0,66,0.00,,,0.00,VWS V14.01,2013-02-04 13:01:00,
2013-02-04 08:06:00,22.7,13.1,30.01,West,267,1.0,5.0,66,0.00,,,0.00,VWS V14.01,2013-02-04 13:06:00,
2013-02-04 08:11:00,23.1,13.4,30.01,West,267,2.0,5.0,66,0.00,,,0.00,VWS V14.01,2013-02-04 13:11:00,
2013-02-04 08:16:00,23.6,13.6,30.01,WNW,293,2.0,8.0,65,0.00,,,0.00,VWS V14.01,2013-02-04 13:16:00,
2013-02-04 08:21:00,24.0,13.6,30.01,West,265,3.0,9.0,64,0.00,,,0.00,VWS V14.01,2013-02-04 13:21:00,
2013-02-04 08:26:00,24.3,13.5,30.02,WNW,297,6.0,9.0,63,0.00,,,0.00,VWS V14.01,2013-02-04 13:26:00,
2013-02-04 08:31:00,24.7,13.6,30.02,WSW,242,3.0,9.0,62,0.00,,,0.00,VWS V14.01,2013-02-04 13:31:00,
2013-02-04 08:36:00,24.9,13.7,30.02,NW,322,7.0,9.0,62,0.00,,,0.00,VWS V14.01,2013-02-04 13:36:00,
2013-02-04 08:41:00,25.3,13.4,30.02,WNW,297,10.0,11.0,60,0.00,,,0.00,VWS V14.01,2013-02-04 13:41:00,
2013-02-04 08:46:00,25.8,13.9,30.02,WNW,299,3.0,11.0,60,0.00,,,0.00,VWS V14.01,2013-02-04 13:46:00,
2013-02-04 08:51:00,26.1,13.8,30.02,WNW,296,4.0,11.0,59,0.00,,,0.00,VWS V14.01,2013-02-04 13:51:00,
2013-02-04 08:56:00,26.5,13.7,30.02,WNW,286,3.0,11.0,58,0.00,,,0.00,VWS V14.01,2013-02-04 13:56:00,
2013-02-04 09:01:00,27.0,13.8,30.02,NW,306,4.0,9.0,57,0.00,,,0.00,VWS V14.01,2013-02-04 14:01:00,
2013-02-04 09:06:00,27.2,13.2,30.02,West,279,2.0,9.0,55,0.00,,,0.00,VWS V14.01,2013-02-04 14:06:00,
2013-02-04 09:11:00,27.2,13.2,30.03,NW,313,3.0,11.0,55,0.00,,,0.00,VWS V14.01,2013-02-04 14:11:00,
2013-02-04 09:16:00,27.5,13.5,30.03,WSW,250,3.0,11.0,55,0.00,,,0.00,VWS V14.01,2013-02-04 14:16:00,
2013-02-04 09:21:00,27.4,13.0,30.03,West,264,4.0,11.0,54,0.00,,,0.00,VWS V14.01,2013-02-04 14:21:00,
2013-02-04 09:26:00,27.4,13.0,30.03,WNW,302,4.0,11.0,54,0.00,,,0.00,VWS V14.01,2013-02-04 14:26:00,
2013-02-04 09:31:00,27.4,13.0,30.03,NW,311,4.0,12.0,54,0.00,,,0.00,VWS V14.01,2013-02-04 14:31:00,
2013-02-04 09:36:00,27.4,13.0,30.03,WNW,297,8.0,12.0,54,0.00,,,0.00,VWS V14.01,2013-02-04 14:36:00,
2013-02-04 09:41:00,27.4,13.0,30.03,NW,312,3.0,12.0,54,0.00,,,0.00,VWS V14.01,2013-02-04 14:41:00,
2013-02-04 09:46:00,28.0,13.1,30.03,West,267,5.0,12.0,53,0.00,,,0.00,VWS V14.01,2013-02-04 14:46:00,
2013-02-04 09:51:00,28.1,13.2,30.03,ENE,71,4.0,12.0,53,0.00,,,0.00,VWS V14.01,2013-02-04 14:51:00,
2013-02-04 09:56:00,28.2,12.4,30.03,WNW,302,10.0,12.0,51,0.00,,,0.00,VWS V14.01,2013-02-04 14:56:00,
2013-02-04 10:01:00,28.8,13.4,30.03,West,259,5.0,11.0,52,0.00,,,0.00,VWS V14.01,2013-02-04 15:01:00,
2013-02-04 10:06:00,29.3,13.0,30.03,WSW,251,8.0,13.0,50,0.00,,,0.00,VWS V14.01,2013-02-04 15:06:00,
2013-02-04 10:11:00,29.0,12.7,30.02,WNW,291,10.0,13.0,50,0.00,,,0.00,VWS V14.01,2013-02-04 15:11:00,
2013-02-04 10:16:00,29.6,12.8,30.03,West,261,7.0,13.0,49,0.00,,,0.00,VWS V14.01,2013-02-04 15:16:00,
2013-02-04 10:21:00,29.0,12.2,30.02,NW,312,8.0,13.0,49,0.00,,,0.00,VWS V14.01,2013-02-04 15:21:00,
2013-02-04 10:26:00,29.2,12.4,30.03,WSW,238,2.0,13.0,49,0.00,,,0.00,VWS V14.01,2013-02-04 15:26:00,
2013-02-04 10:31:00,28.7,12.0,30.03,WSW,253,5.0,12.0,49,0.00,,,0.00,VWS V14.01,2013-02-04 15:31:00,
2013-02-04 10:36:00,28.9,12.1,30.02,WSW,250,4.0,12.0,49,0.00,,,0.00,VWS V14.01,2013-02-04 15:36:00,
2013-02-04 10:41:00,28.4,11.2,30.03,WNW,286,5.0,12.0,48,0.00,,,0.00,VWS V14.01,2013-02-04 15:41:00,
2013-02-04 10:46:00,28.1,10.9,30.03,WNW,302,5.0,13.0,48,0.00,,,0.00,VWS V14.01,2013-02-04 15:46:00,
2013-02-04 10:52:00,28.1,10.9,30.02,WNW,285,7.0,13.0,48,0.00,,,0.00,VWS V14.01,2013-02-04 15:52:00,
2013-02-04 10:57:00,28.4,11.7,30.02,NNW,333,7.0,13.0,49,0.00,,,0.00,VWS V14.01,2013-02-04 15:57:00,
2013-02-04 11:02:00,28.8,11.6,30.02,NW,314,2.0,10.0,48,0.00,,,0.00,VWS V14.01,2013-02-04 16:02:00,
2013-02-04 11:07:00,29.3,12.5,30.02,WNW,286,3.0,12.0,49,0.00,,,0.00,VWS V14.01,2013-02-04 16:07:00,
2013-02-04 11:12:00,30.1,11.8,30.02,WSW,255,7.0,12.0,46,0.00,,,0.00,VWS V14.01,2013-02-04 16:12:00,
2013-02-04 11:17:00,30.5,11.7,30.02,West,276,5.0,14.0,45,0.00,,,0.00,VWS V14.01,2013-02-04 16:17:00,
2013-02-04 11:22:00,29.6,10.4,30.02,NW,309,7.0,14.0,44,0.00,,,0.00,VWS V14.01,2013-02-04 16:22:00,
2013-02-04 11:27:00,29.2,11.0,30.02,NNW,339,4.0,14.0,46,0.00,,,0.00,VWS V14.01,2013-02-04 16:27:00,
2013-02-04 11:32:00,29.2,11.0,30.02,West,273,4.0,8.0,46,0.00,,,0.00,VWS V14.01,2013-02-04 16:32:00,
2013-02-04 11:37:00,29.9,11.2,30.02,WNW,286,10.0,13.0,45,0.00,,,0.00,VWS V14.01,2013-02-04 16:37:00,
2013-02-04 11:42:00,30.4,11.6,30.01,South,180,3.0,13.0,45,0.00,,,0.00,VWS V14.01,2013-02-04 16:42:00,
2013-02-04 11:47:00,30.5,11.2,30.01,WNW,294,11.0,14.0,44,0.00,,,0.00,VWS V14.01,2013-02-04 16:47:00,
2013-02-04 11:52:00,30.6,11.3,30.01,WNW,295,5.0,14.0,44,0.00,,,0.00,VWS V14.01,2013-02-04 16:52:00,
2013-02-04 11:57:00,30.2,10.9,30.01,SW,236,5.0,14.0,44,0.00,,,0.00,VWS V14.01,2013-02-04 16:57:00,
2013-02-04 12:02:00,30.4,11.1,30.00,NNW,339,8.0,12.0,44,0.00,,,0.00,VWS V14.01,2013-02-04 17:02:00,
2013-02-04 12:07:00,30.5,10.7,30.00,NW,313,4.0,12.0,43,0.00,,,0.00,VWS V14.01,2013-02-04 17:07:00,
2013-02-04 12:12:00,31.0,11.7,30.00,West,263,6.0,15.0,44,0.00,,,0.00,VWS V14.01,2013-02-04 17:12:00,
2013-02-04 12:17:00,31.1,11.2,29.99,West,270,5.0,15.0,43,0.00,,,0.00,VWS V14.01,2013-02-04 17:17:00,
2013-02-04 12:22:00,31.0,11.1,30.00,WSW,244,6.0,15.0,43,0.00,,,0.00,VWS V14.01,2013-02-04 17:22:00,
2013-02-04 12:27:00,30.5,11.2,30.00,North,350,4.0,15.0,44,0.00,,,0.00,VWS V14.01,2013-02-04 17:27:00,
2013-02-04 12:32:00,31.7,11.2,30.00,WNW,300,7.0,13.0,42,0.00,,,0.00,VWS V14.01,2013-02-04 17:32:00,
2013-02-04 12:37:00,31.4,11.5,29.99,West,271,2.0,13.0,43,0.00,,,0.00,VWS V14.01,2013-02-04 17:37:00,
2013-02-04 12:42:00,30.2,10.9,29.99,SW,225,6.0,13.0,44,0.00,,,0.00,VWS V14.01,2013-02-04 17:42:00,
2013-02-04 12:47:00,30.4,11.1,29.99,WSW,238,6.0,13.0,44,0.00,,,0.00,VWS V14.01,2013-02-04 17:47:00,
2013-02-04 12:52:00,30.9,12.1,29.99,NW,319,2.0,13.0,45,0.00,,,0.00,VWS V14.01,2013-02-04 17:52:00,
2013-02-04 12:57:00,32.1,12.1,29.99,West,277,3.0,13.0,43,0.00,,,0.00,VWS V14.01,2013-02-04 17:57:00,
2013-02-04 13:02:00,32.0,11.5,29.99,West,281,3.0,12.0,42,0.00,,,0.00,VWS V14.01,2013-02-04 18:02:00,
2013-02-04 13:07:00,31.1,10.7,29.99,SW,220,5.0,16.0,42,0.00,,,0.00,VWS V14.01,2013-02-04 18:07:00,
2013-02-04 13:12:00,31.2,11.8,29.98,WSW,258,2.0,16.0,44,0.00,,,0.00,VWS V14.01,2013-02-04 18:12:00,
2013-02-04 13:17:00,31.8,11.9,29.98,WNW,296,5.0,16.0,43,0.00,,,0.00,VWS V14.01,2013-02-04 18:17:00,
2013-02-04 13:22:00,31.5,11.1,29.98,NW,306,5.0,16.0,42,0.00,,,0.00,VWS V14.01,2013-02-04 18:22:00,
2013-02-04 13:27:00,31.0,11.1,29.98,WNW,294,6.0,16.0,43,0.00,,,0.00,VWS V14.01,2013-02-04 18:27:00,
2013-02-04 13:33:00,30.4,11.1,29.97,SW,234,6.0,8.0,44,0.00,,,0.00,VWS V14.01,2013-02-04 18:33:00,
2013-02-04 13:38:00,30.8,11.5,29.97,NW,315,10.0,13.0,44,0.00,,,0.00,VWS V14.01,2013-02-04 18:38:00,
2013-02-04 13:43:00,31.2,11.3,29.97,NW,319,4.0,14.0,43,0.00,,,0.00,VWS V14.01,2013-02-04 18:43:00,
2013-02-04 13:48:00,31.3,11.4,29.97,West,261,6.0,14.0,43,0.00,,,0.00,VWS V14.01,2013-02-04 18:48:00,
2013-02-04 13:53:00,30.9,11.6,29.97,West,278,5.0,14.0,44,0.00,,,0.00,VWS V14.01,2013-02-04 18:53:00,
2013-02-04 13:58:00,31.5,11.6,29.97,WSW,257,2.0,14.0,43,0.00,,,0.00,VWS V14.01,2013-02-04 18:58:00,
2013-02-04 14:03:00,31.9,11.4,29.97,NW,313,8.0,15.0,42,0.00,,,0.00,VWS V14.01,2013-02-04 19:03:00,
2013-02-04 14:08:00,31.9,11.4,29.97,NW,304,3.0,15.0,42,0.00,,,0.00,VWS V14.01,2013-02-04 19:08:00,
2013-02-04 14:13:00,31.9,11.4,29.96,SW,234,5.0,16.0,42,0.00,,,0.00,VWS V14.01,2013-02-04 19:13:00,
2013-02-04 14:18:00,32.0,11.5,29.96,NW,317,4.0,16.0,42,0.00,,,0.00,VWS V14.01,2013-02-04 19:18:00,
2013-02-04 14:23:00,32.1,11.6,29.96,NW,318,9.0,16.0,42,0.00,,,0.00,VWS V14.01,2013-02-04 19:23:00,
2013-02-04 14:28:00,31.7,11.2,29.97,West,277,4.0,17.0,42,0.00,,,0.00,VWS V14.01,2013-02-04 19:28:00,
2013-02-04 14:33:00,31.7,11.2,29.97,SW,234,2.0,9.0,42,0.00,,,0.00,VWS V14.01,2013-02-04 19:33:00,
2013-02-04 14:38:00,32.1,11.6,29.97,SW,229,4.0,10.0,42,0.00,,,0.00,VWS V14.01,2013-02-04 19:38:00,
2013-02-04 14:43:00,31.8,11.3,29.97,WSW,250,3.0,10.0,42,0.00,,,0.00,VWS V14.01,2013-02-04 19:43:00,
2013-02-04 14:48:00,31.4,11.0,29.96,SW,232,9.0,10.0,42,0.00,,,0.00,VWS V14.01,2013-02-04 19:48:00,
2013-02-04 14:53:00,31.5,11.6,29.96,NNW,330,7.0,13.0,43,0.00,,,0.00,VWS V14.01,2013-02-04 19:53:00,
2013-02-04 14:58:00,31.9,12.0,29.97,NW,312,12.0,13.0,43,0.00,,,0.00,VWS V14.01,2013-02-04 19:58:00,
2013-02-04 15:03:00,31.9,11.4,29.97,WNW,299,6.0,15.0,42,0.00,,,0.00,VWS V14.01,2013-02-04 20:03:00,
2013-02-04 15:08:00,31.5,11.1,29.97,WNW,292,6.0,15.0,42,0.00,,,0.00,VWS V14.01,2013-02-04 20:08:00,
2013-02-04 15:13:00,31.4,11.5,29.97,NW,318,6.0,15.0,43,0.00,,,0.00,VWS V14.01,2013-02-04 20:13:00,
2013-02-04 15:18:00,31.1,11.8,29.97,West,271,8.0,15.0,44,0.00,,,0.00,VWS V14.01,2013-02-04 20:18:00,
2013-02-04 15:23:00,31.2,11.8,29.97,West,263,2.0,15.0,44,0.00,,,0.00,VWS V14.01,2013-02-04 20:23:00,
2013-02-04 15:28:00,31.3,11.4,29.97,West,271,5.0,15.0,43,0.00,,,0.00,VWS V14.01,2013-02-04 20:28:00,
2013-02-04 15:33:00,31.7,11.8,29.97,WNW,290,2.0,11.0,43,0.00,,,0.00,VWS V14.01,2013-02-04 20:33:00,
2013-02-04 15:38:00,31.4,11.0,29.97,WNW,284,9.0,16.0,42,0.00,,,0.00,VWS V14.01,2013-02-04 20:38:00,
2013-02-04 15:43:00,31.0,11.7,29.97,WNW,288,6.0,16.0,44,0.00,,,0.00,VWS V14.01,2013-02-04 20:43:00,
2013-02-04 15:48:00,31.1,11.8,29.97,West,277,8.0,16.0,44,0.00,,,0.00,VWS V14.01,2013-02-04 20:48:00,
2013-02-04 15:53:00,31.1,11.8,29.97,NW,306,3.0,16.0,44,0.00,,,0.00,VWS V14.01,2013-02-04 20:53:00,
2013-02-04 15:58:00,31.0,11.7,29.97,NNW,343,4.0,16.0,44,0.00,,,0.00,VWS V14.01,2013-02-04 20:58:00,
2013-02-04 16:03:00,30.7,11.9,29.97,WNW,294,8.0,11.0,45,0.00,,,0.00,VWS V14.01,2013-02-04 21:03:00,
2013-02-04 16:08:00,30.5,11.7,29.98,NW,314,2.0,13.0,45,0.00,,,0.00,VWS V14.01,2013-02-04 21:08:00,
2013-02-04 16:13:00,30.1,11.3,29.98,WNW,289,4.0,13.0,45,0.00,,,0.00,VWS V14.01,2013-02-04 21:13:00,
2013-02-04 16:18:00,29.7,11.5,29.98,SW,218,4.0,13.0,46,0.00,,,0.00,VWS V14.01,2013-02-04 21:18:00,
2013-02-04 16:23:00,29.7,11.5,29.98,NW,305,10.0,13.0,46,0.00,,,0.00,VWS V14.01,2013-02-04 21:23:00,
2013-02-04 16:28:00,29.6,11.9,29.98,SW,232,5.0,13.0,47,0.00,,,0.00,VWS V14.01,2013-02-04 21:28:00,
2013-02-04 16:33:00,29.4,12.1,29.98,West,277,6.0,9.0,48,0.00,,,0.00,VWS V14.01,2013-02-04 21:33:00,
2013-02-04 16:38:00,29.4,12.1,29.98,NNW,329,6.0,9.0,48,0.00,,,0.00,VWS V14.01,2013-02-04 21:38:00,
2013-02-04 16:43:00,29.4,12.1,29.98,West,266,6.0,11.0,48,0.00,,,0.00,VWS V14.01,2013-02-04 21:43:00,
2013-02-04 16:48:00,29.5,12.2,29.98,NW,308,5.0,11.0,48,0.00,,,0.00,VWS V14.01,2013-02-04 21:48:00,
2013-02-04 16:53:00,29.6,12.3,29.98,NW,309,4.0,11.0,48,0.00,,,0.00,VWS V14.01,2013-02-04 21:53:00,
2013-02-04 16:58:00,29.5,12.2,29.98,NW,319,2.0,11.0,48,0.00,,,0.00,VWS V14.01,2013-02-04 21:58:00,
2013-02-04 17:03:00,29.3,11.6,29.98,NW,314,2.0,5.0,47,0.00,,,0.00,VWS V14.01,2013-02-04 22:03:00,
2013-02-04 17:08:00,29.2,12.4,29.98,WNW,292,0.0,5.0,49,0.00,,,0.00,VWS V14.01,2013-02-04 22:08:00,
2013-02-04 17:13:00,29.0,12.2,29.98,WNW,282,3.0,6.0,49,0.00,,,0.00,VWS V14.01,2013-02-04 22:13:00,
2013-02-04 17:19:00,28.9,12.1,29.98,WNW,294,2.0,6.0,49,0.00,,,0.00,VWS V14.01,2013-02-04 22:19:00,
2013-02-04 17:24:00,28.8,12.5,29.98,NW,313,1.0,6.0,50,0.00,,,0.00,VWS V14.01,2013-02-04 22:24:00,
2013-02-04 17:29:00,28.7,12.4,29.98,WSW,254,2.0,6.0,50,0.00,,,0.00,VWS V14.01,2013-02-04 22:29:00,
2013-02-04 17:34:00,28.5,11.8,29.98,West,261,1.0,2.0,49,0.00,,,0.00,VWS V14.01,2013-02-04 22:34:00,
2013-02-04 17:39:00,28.2,11.5,29.98,West,267,2.0,3.0,49,0.00,,,0.00,VWS V14.01,2013-02-04 22:39:00,
2013-02-04 17:44:00,28.1,11.4,29.98,NW,326,1.0,3.0,49,0.00,,,0.00,VWS V14.01,2013-02-04 22:44:00,
2013-02-04 17:49:00,27.9,11.7,29.99,NW,323,0.0,3.0,50,0.00,,,0.00,VWS V14.01,2013-02-04 22:49:00,
2013-02-04 17:54:00,27.8,12.0,29.99,SW,225,0.0,3.0,51,0.00,,,0.00,VWS V14.01,2013-02-04 22:54:00,
2013-02-04 17:59:00,27.7,11.9,29.99,SW,225,0.0,3.0,51,0.00,,,0.00,VWS V14.01,2013-02-04 22:59:00,
2013-02-04 18:04:00,27.6,11.9,29.99,SW,225,0.0,0.0,51,0.00,,,0.00,VWS V14.01,2013-02-04 23:04:00,
2013-02-04 18:09:00,27.3,12.4,29.99,SW,225,0.0,0.0,53,0.00,,,0.00,VWS V14.01,2013-02-04 23:09:00,
2013-02-04 18:14:00,27.0,12.6,29.99,SW,225,0.0,1.0,54,0.00,,,0.00,VWS V14.01,2013-02-04 23:14:00,
2013-02-04 18:19:00,26.8,12.4,29.99,SW,225,0.0,1.0,54,0.00,,,0.00,VWS V14.01,2013-02-04 23:19:00,
2013-02-04 18:24:00,26.5,12.1,30.00,SW,225,0.0,1.0,54,0.00,,,0.00,VWS V14.01,2013-02-04 23:24:00,
2013-02-04 18:29:00,26.3,11.9,30.00,SW,225,0.0,1.0,54,0.00,,,0.00,VWS V14.01,2013-02-04 23:29:00,
2013-02-04 18:34:00,26.1,12.6,30.00,SW,225,0.0,1.0,56,0.00,,,0.00,VWS V14.01,2013-02-04 23:34:00,
2013-02-04 18:39:00,25.9,12.4,30.00,SW,225,0.0,1.0,56,0.00,,,0.00,VWS V14.01,2013-02-04 23:39:00,
2013-02-04 18:44:00,25.8,12.7,30.00,SW,225,0.0,1.0,57,0.00,,,0.00,VWS V14.01,2013-02-04 23:44:00,
2013-02-04 18:49:00,25.7,13.0,30.00,SW,225,1.0,1.0,58,0.00,,,0.00,VWS V14.01,2013-02-04 23:49:00,
2013-02-04 18:54:00,25.7,13.8,29.99,West,279,2.0,2.0,60,0.00,,,0.00,VWS V14.01,2013-02-04 23:54:00,
2013-02-04 18:59:00,25.6,14.4,29.99,NW,307,0.0,2.0,62,0.00,,,0.00,VWS V14.01,2013-02-04 23:59:00,
2013-02-04 19:04:00,25.5,14.7,29.99,NW,307,0.0,0.0,63,0.00,,,0.00,VWS V14.01,2013-02-05 00:04:00,
2013-02-04 19:09:00,25.3,14.1,29.99,NW,307,0.0,0.0,62,0.00,,,0.00,VWS V14.01,2013-02-05 00:09:00,
2013-02-04 19:14:00,25.2,14.4,29.99,NW,307,0.0,0.0,63,0.00,,,0.00,VWS V14.01,2013-02-05 00:14:00,
2013-02-04 19:19:00,25.1,14.6,29.99,NW,307,0.0,0.0,64,0.00,,,0.00,VWS V14.01,2013-02-05 00:19:00,
2013-02-04 19:24:00,24.9,14.8,29.99,NW,307,0.0,0.0,65,0.00,,,0.00,VWS V14.01,2013-02-05 00:24:00,
2013-02-04 19:29:00,24.7,14.6,29.99,NW,307,1.0,1.0,65,0.00,,,0.00,VWS V14.01,2013-02-05 00:29:00,
2013-02-04 19:34:00,24.5,14.8,29.99,NW,307,0.0,2.0,66,0.00,,,0.00,VWS V14.01,2013-02-05 00:34:00,
2013-02-04 19:39:00,24.3,14.2,29.99,NW,307,0.0,2.0,65,0.00,,,0.00,VWS V14.01,2013-02-05 00:39:00,
2013-02-04 19:44:00,24.2,14.1,30.00,NW,307,0.0,2.0,65,0.00,,,0.00,VWS V14.01,2013-02-05 00:44:00,
2013-02-04 19:49:00,24.1,14.1,29.99,NW,307,0.0,2.0,65,0.00,,,0.00,VWS V14.01,2013-02-05 00:49:00,
2013-02-04 19:54:00,23.9,13.9,29.99,NW,307,0.0,2.0,65,0.00,,,0.00,VWS V14.01,2013-02-05 00:54:00,
2013-02-04 19:59:00,23.8,13.8,29.99,NW,307,0.0,2.0,65,0.00,,,0.00,VWS V14.01,2013-02-05 00:59:00,
2013-02-04 20:04:00,23.8,13.8,29.99,NW,307,1.0,2.0,65,0.00,,,0.00,VWS V14.01,2013-02-05 01:04:00,
2013-02-04 20:09:00,23.6,13.6,29.99,NW,307,0.0,2.0,65,0.00,,,0.00,VWS V14.01,2013-02-05 01:09:00,
2013-02-04 20:14:00,23.6,13.9,29.99,NW,307,0.0,2.0,66,0.00,,,0.00,VWS V14.01,2013-02-05 01:14:00,
2013-02-04 20:19:00,23.5,14.2,29.99,NW,307,0.0,2.0,67,0.00,,,0.00,VWS V14.01,2013-02-05 01:19:00,
2013-02-04 20:24:00,23.4,14.1,29.99,NW,307,0.0,2.0,67,0.00,,,0.00,VWS V14.01,2013-02-05 01:24:00,
2013-02-04 20:29:00,23.3,14.3,29.99,NW,307,0.0,2.0,68,0.00,,,0.00,VWS V14.01,2013-02-05 01:29:00,
2013-02-04 20:34:00,23.2,14.6,29.99,NW,307,0.0,0.0,69,0.00,,,0.00,VWS V14.01,2013-02-05 01:34:00,
2013-02-04 20:39:00,23.1,14.5,29.99,NW,307,0.0,0.0,69,0.00,,,0.00,VWS V14.01,2013-02-05 01:39:00,
2013-02-04 20:44:00,22.9,14.6,29.99,NW,307,0.0,0.0,70,0.00,,,0.00,VWS V14.01,2013-02-05 01:44:00,
2013-02-04 20:49:00,22.8,14.5,29.99,NW,307,0.0,1.0,70,0.00,,,0.00,VWS V14.01,2013-02-05 01:49:00,
2013-02-04 20:54:00,22.7,14.4,29.99,NW,307,0.0,1.0,70,0.00,,,0.00,VWS V14.01,2013-02-05 01:54:00,
2013-02-04 20:59:00,22.6,14.3,29.99,NW,307,0.0,0.0,70,0.00,,,0.00,VWS V14.01,2013-02-05 01:59:00,
2013-02-04 21:05:00,22.6,14.6,29.99,NW,307,0.0,0.0,71,0.00,,,0.00,VWS V14.01,2013-02-05 02:05:00,
2013-02-04 21:10:00,22.6,14.9,29.99,NW,307,0.0,0.0,72,0.00,,,0.00,VWS V14.01,2013-02-05 02:10:00,
2013-02-04 21:15:00,22.6,14.6,29.99,NW,307,0.0,0.0,71,0.00,,,0.00,VWS V14.01,2013-02-05 02:15:00,
2013-02-04 21:20:00,22.7,15.4,29.99,NW,307,0.0,1.0,73,0.00,,,0.00,VWS V14.01,2013-02-05 02:20:00,
2013-02-04 21:25:00,22.8,15.8,29.99,NW,307,0.0,1.0,74,0.00,,,0.00,VWS V14.01,2013-02-05 02:25:00,
2013-02-04 21:30:00,23.0,16.0,29.99,NW,307,0.0,0.0,74,0.00,,,0.00,VWS V14.01,2013-02-05 02:30:00,
2013-02-04 21:35:00,23.1,16.1,29.99,NW,307,0.0,0.0,74,0.00,,,0.00,VWS V14.01,2013-02-05 02:35:00,
2013-02-04 21:40:00,23.3,15.9,29.99,NW,307,0.0,0.0,73,0.00,,,0.00,VWS V14.01,2013-02-05 02:40:00,
2013-02-04 21:45:00,23.4,16.4,29.99,NW,307,0.0,1.0,74,0.00,,,0.00,VWS V14.01,2013-02-05 02:45:00,
2013-02-04 21:50:00,23.5,16.8,29.99,NW,307,0.0,1.0,75,0.00,,,0.00,VWS V14.01,2013-02-05 02:50:00,
2013-02-04 21:55:00,23.7,16.6,29.99,NW,307,0.0,1.0,74,0.00,,,0.00,VWS V14.01,2013-02-05 02:55:00,
2013-02-04 22:00:00,23.9,16.5,29.99,NW,307,0.0,0.0,73,0.00,,,0.00,VWS V14.01,2013-02-05 03:00:00,
2013-02-04 22:05:00,24.1,17.0,29.99,NW,307,0.0,0.0,74,0.00,,,0.00,VWS V14.01,2013-02-05 03:05:00,
2013-02-04 22:10:00,24.2,17.1,29.99,NW,307,0.0,1.0,74,0.00,,,0.00,VWS V14.01,2013-02-05 03:10:00,
2013-02-04 22:15:00,24.4,17.3,29.99,NW,307,0.0,1.0,74,0.00,,,0.00,VWS V14.01,2013-02-05 03:15:00,
2013-02-04 22:20:00,24.6,17.5,29.98,SE,134,0.0,2.0,74,0.00,,,0.00,VWS V14.01,2013-02-05 03:20:00,
2013-02-04 22:25:00,24.8,17.4,29.99,SE,134,0.0,2.0,73,0.00,,,0.00,VWS V14.01,2013-02-05 03:25:00,
2013-02-04 22:30:00,25.0,17.6,29.99,SE,143,0.0,0.0,73,0.00,,,0.00,VWS V14.01,2013-02-05 03:30:00,
2013-02-04 22:35:00,25.2,17.8,29.99,SE,143,0.0,0.0,73,0.00,,,0.00,VWS V14.01,2013-02-05 03:35:00,
2013-02-04 22:40:00,25.4,17.6,29.99,SE,142,0.0,2.0,72,0.00,,,0.00,VWS V14.01,2013-02-05 03:40:00,
2013-02-04 22:45:00,25.5,17.8,29.99,SE,142,0.0,2.0,72,0.00,,,0.00,VWS V14.01,2013-02-05 03:45:00,
2013-02-04 22:50:00,25.6,18.5,29.98,SE,142,0.0,2.0,74,0.00,,,0.00,VWS V14.01,2013-02-05 03:50:00,
2013-02-04 22:55:00,25.7,18.3,29.98,SE,142,0.0,2.0,73,0.00,,,0.00,VWS V14.01,2013-02-05 03:55:00,
2013-02-04 23:00:00,25.7,18.6,29.98,SE,142,0.0,1.0,74,0.00,,,0.00,VWS V14.01,2013-02-05 04:00:00,
2013-02-04 23:05:00,25.7,18.9,29.98,SE,141,0.0,2.0,75,0.00,,,0.00,VWS V14.01,2013-02-05 04:05:00,
2013-02-04 23:10:00,25.7,19.2,29.98,SE,141,0.0,2.0,76,0.00,,,0.00,VWS V14.01,2013-02-05 04:10:00,
2013-02-04 23:15:00,25.7,19.5,29.98,SE,141,0.0,2.0,77,0.00,,,0.00,VWS V14.01,2013-02-05 04:15:00,
2013-02-04 23:20:00,25.6,19.7,29.98,SE,141,0.0,2.0,78,0.00,,,0.00,VWS V14.01,2013-02-05 04:20:00,
2013-02-04 23:25:00,25.6,19.7,29.98,SE,142,0.0,2.0,78,0.00,,,0.00,VWS V14.01,2013-02-05 04:25:00,
2013-02-04 23:30:00,25.6,20.0,29.98,ESE,105,0.0,0.0,79,0.00,,,0.00,VWS V14.01,2013-02-05 04:30:00,
2013-02-04 23:35:00,25.5,20.2,29.98,ESE,105,0.0,0.0,80,0.00,,,0.00,VWS V14.01,2013-02-05 04:35:00,
2013-02-04 23:40:00,25.5,20.2,29.98,ESE,105,0.0,2.0,80,0.00,,,0.00,VWS V14.01,2013-02-05 04:40:00,
2013-02-04 23:45:00,25.5,20.5,29.97,ESE,105,0.0,2.0,81,0.00,,,0.00,VWS V14.01,2013-02-05 04:45:00,
2013-02-04 23:50:00,25.5,20.5,29.97,ESE,105,0.0,2.0,81,0.00,,,0.00,VWS V14.01,2013-02-05 04:50:00,
2013-02-04 23:55:00,25.5,20.8,29.97,ESE,105,0.0,2.0,82,0.00,,,0.00,VWS V14.01,2013-02-05 04:55:00,